Simultaneous Nadir Overpasses (SNOs) Predictions

Prediction of SNOs between NOAA-20 and NOAA-19 Satellite Orbit:

Table of predicted SNOs for the next 14.0 days since TLE Epoch: 4/12/2019
Index Date (NOAA-20) Time (NOAA-20) Lat,Lon (NOAA-20) SZA (NOAA-20 ) Date (NOAA-19) Time (NOAA-19) Lat,Lon (NOAA-19) SZA (NOAA-19 ) Distance(km) Time Diff (sec)
1 04/19/2019 08:24:21 80.15, 13.71 71.39 04/19/2019 08:23:09 80.15, 13.79 71.41 1.78 72
2 04/19/2019 09:15:05 -80.13,-178.76 108.67 04/19/2019 09:14:04 -80.16,-178.80 108.62 2.53 61
3 04/19/2019 10:05:51 80.16, -11.70 71.37 04/19/2019 10:05:10 80.15, -11.74 71.38 1.60 41
4 04/19/2019 10:56:36 -80.17, 155.52 108.63 04/19/2019 10:56:05 -80.15, 155.67 108.64 2.99 31
5 04/19/2019 11:47:21 80.16, -37.11 71.35 04/19/2019 11:47:10 80.16, -36.96 71.34 2.99 11
6 04/19/2019 12:38:06 -80.17, 130.11 108.65 04/19/2019 12:38:06 -80.15, 130.13 108.67 1.90 0
7 04/19/2019 13:28:51 80.16, -62.52 71.33 04/19/2019 13:29:11 80.16, -62.49 71.32 0.62 20
8 04/19/2019 14:19:36 -80.17, 104.70 108.67 04/19/2019 14:20:07 -80.15, 104.59 108.69 3.23 31
9 04/19/2019 15:10:21 80.17, -87.93 71.31 04/19/2019 15:11:12 80.16, -88.03 71.29 1.98 51
10 04/19/2019 16:01:06 -80.18, 79.29 108.69 04/19/2019 16:02:07 -80.17, 79.38 108.73 1.77 61




NCC Satellite Simultaneous Nadir Overpasses (SNOs) Prediction Service
